This is the latest recevied weather packets stored in our database for station/object KD8JAM. If no packets are shown the sender has not sent any weather packets the latest 10 day(s).
| Time | Temp. | Humidity | Pressure | Rain* | Wind** | Luminosity | Snow |
|---|---|---|---|---|---|---|---|
| 1777832305 | 13.89° C | 68% | 1003.4 hPa | 0 mm | - | 662 W/m² | - |
| 1777832002 | 13.89° C | 69% | 1003.4 hPa | 0 mm | - | 604 W/m² | - |
| 1777831699 | 13.89° C | 68% | 1003.3 hPa | 0 mm | - | 660 W/m² | - |
| 1777831397 | 13.89° C | 68% | 1003.3 hPa | 0 mm | - | 644 W/m² | - |
| 1777831093 | 13.33° C | 69% | 1003.1 hPa | 0 mm | - | 658 W/m² | - |
| 1777830791 | 13.89° C | 70% | 1003.4 hPa | 0 mm | - | 639 W/m² | - |
| 1777830486 | 13.89° C | 69% | 1003.4 hPa | 0 mm | - | 766 W/m² | - |
| 1777830185 | 13.33° C | 71% | 1003.5 hPa | 0 mm | - | 672 W/m² | - |
| 1777829880 | 13.89° C | 70% | 1003.4 hPa | 0 mm | - | 518 W/m² | - |
| 1777829576 | 14.44° C | 68% | 1003.5 hPa | 0 mm | - | 611 W/m² | - |
| 1777829273 | 15° C | 66% | 1003.3 hPa | 0 mm | - | 692 W/m² | - |
| 1777828970 | 15.56° C | 65% | 1003.5 hPa | 0 mm | - | 705 W/m² | - |
| 1777828667 | 14.44° C | 67% | 1003.4 hPa | 0 mm | - | 787 W/m² | - |
| 1777828364 | 14.44° C | 67% | 1003.4 hPa | 0 mm | - | 768 W/m² | - |
| 1777828061 | 14.44° C | 67% | 1003.5 hPa | 0 mm | - | 704 W/m² | - |
| 1777827757 | 14.44° C | 68% | 1003.6 hPa | 0 mm | - | 739 W/m² | - |
| 1777827455 | 14.44° C | 68% | 1003.5 hPa | 0 mm | - | 767 W/m² | - |
| 1777827152 | 13.89° C | 68% | 1003.7 hPa | 0 mm | - | 727 W/m² | - |
| 1777826847 | 14.44° C | 69% | 1003.7 hPa | 0 mm | - | 806 W/m² | - |
| 1777826546 | 14.44° C | 68% | 1003.4 hPa | 0 mm | - | 798 W/m² | - |
| 1777826241 | 13.89° C | 69% | 1003.6 hPa | 0 mm | - | 808 W/m² | - |
| 1777825940 | 13.89° C | 70% | 1003.6 hPa | 0 mm | - | 846 W/m² | - |
| 1777825636 | 13.33° C | 71% | 1004.1 hPa | 0 mm | - | 918 W/m² | - |
| 1777825334 | 13.33° C | 72% | 1004 hPa | 0 mm | - | 380 W/m² | - |
| 1777825031 | 13.33° C | 72% | 1003.9 hPa | 0 mm | - | 524 W/m² | - |
* Rain latest hour (hover to see other rain measurements)
** Current wind speed in m/s (hover to see current wind gust speed)